This is the latest recevied weather packets stored in our database for station/object DC4AT. If no packets are shown the sender has not sent any weather packets the latest 1 day(s).
| Time | Temp. | Humidity | Pressure | Rain* | Wind** | Luminosity | Snow |
|---|---|---|---|---|---|---|---|
| 1836274750 | 14.44° C | 85% | 1017.8 hPa | 0 mm | 0.45 m/s, 132° | 0 W/m² | - |
| 1836274150 | 14.44° C | 85% | 1017.9 hPa | 0 mm | 0 m/s | 0 W/m² | - |
| 1778008412 | 13.33° C | 85% | 1007 hPa | 0 mm | 0.89 m/s, 53° | 0 W/m² | - |
| 1778007812 | 13.33° C | 85% | 1006.9 hPa | 0 mm | 0.89 m/s, 22° | 0 W/m² | - |
| 1778007212 | 13.89° C | 85% | 1006.9 hPa | 0 mm | 0.89 m/s, 67° | 0 W/m² | - |
| 1778006612 | 13.89° C | 86% | 1006.9 hPa | 0 mm | 1.34 m/s, 48° | 0 W/m² | - |
| 1778006012 | 13.89° C | 85% | 1007 hPa | 0 mm | 0.89 m/s, 347° | 0 W/m² | - |
| 1778005412 | 13.89° C | 85% | 1007 hPa | 0 mm | 0.89 m/s, 335° | 5 W/m² | - |
| 1778004812 | 13.89° C | 85% | 1007 hPa | 0 mm | 1.34 m/s, 40° | 7 W/m² | - |
| 1778004212 | 14.44° C | 85% | 1007 hPa | 0 mm | 1.34 m/s, 5° | 7 W/m² | - |
| 1778003612 | 14.44° C | 85% | 1007 hPa | 0 mm | 1.34 m/s, 81° | 9 W/m² | - |
| 1778003012 | 14.44° C | 85% | 1006.9 hPa | 0 mm | 0.89 m/s, 58° | 16 W/m² | - |
| 1778002412 | 14.44° C | 85% | 1007 hPa | 0 mm | 1.79 m/s, 36° | 21 W/m² | - |
| 1778001812 | 14.44° C | 85% | 1007 hPa | 0 mm | 1.34 m/s, 5° | 32 W/m² | - |
| 1778001212 | 14.44° C | 85% | 1007.1 hPa | 0 mm | 1.34 m/s, 26° | 46 W/m² | - |
| 1778000612 | 15° C | 85% | 1007.1 hPa | 0 mm | 1.34 m/s, 338° | 56 W/m² | - |
| 1778000012 | 15° C | 84% | 1007.1 hPa | 0 mm | 1.79 m/s, 279° | 58 W/m² | - |
| 1777999413 | 15° C | 85% | 1007.2 hPa | 0 mm | 2.24 m/s, 254° | 65 W/m² | - |
| 1777998813 | 15° C | 84% | 1007.3 hPa | 0 mm | 2.24 m/s, 329° | 65 W/m² | - |
| 1777998213 | 15° C | 84% | 1007.4 hPa | 0 mm | 2.24 m/s, 349° | 74 W/m² | - |
| 1777997613 | 15° C | 84% | 1007.4 hPa | 0 mm | 1.79 m/s, 311° | 83 W/m² | - |
| 1777997013 | 15.56° C | 84% | 1007.3 hPa | 0 mm | 2.24 m/s, 302° | 79 W/m² | - |
| 1777996413 | 15.56° C | 84% | 1007.4 hPa | 0 mm | 2.24 m/s, 327° | 81 W/m² | - |
| 1777995813 | 15.56° C | 84% | 1007.5 hPa | 0 mm | 1.79 m/s, 331° | 76 W/m² | - |
| 1777995213 | 15.56° C | 84% | 1007.5 hPa | 0 mm | 2.24 m/s, 108° | 88 W/m² | - |
* Rain latest hour (hover to see other rain measurements)
** Current wind speed in m/s (hover to see current wind gust speed)